Location: Battersea Observatory
(44.4318°N, 76.3841°W)
Time: 06:34:50
(UTC-05:00)

Courier 1B Rocket - Visible Passes

Search period start: 19 January 2022 00:00
Search period end: 29 January 2022 00:00
Orbit: 920 x 1202 km, 28.2° (Epoch: 18 January)

Date Brightness Start Highest point End Pass type
(mag) Time Alt. Az. Time Alt. Az. Time Alt. Az.
19 Jan 7.1 04:12:11 15° SSE 04:12:11 15° SSE 04:14:45 10° SE visible
19 Jan 6.9 05:59:23 10° SW 06:03:30 18° S 06:07:32 10° SE visible
20 Jan 6.7 05:01:21 17° SSW 05:02:48 18° S 05:06:58 10° SE visible
20 Jan 7.1 06:51:45 10° SW 06:55:04 15° SSW 06:58:21 10° SSE visible
21 Jan 7.1 04:04:06 16° SSE 04:04:06 16° SSE 04:06:14 10° SE visible
21 Jan 6.9 05:50:28 10° SW 05:54:24 17° S 05:58:17 10° SSE visible
22 Jan 6.7 04:53:12 18° S 04:53:42 19° S 04:57:58 10° SE visible
22 Jan 7.1 06:43:34 10° SW 06:45:55 12° SSW 06:48:15 10° S visible
23 Jan 7.2 03:55:56 15° SSE 03:55:56 15° SSE 03:57:27 10° SE visible
23 Jan 6.9 05:42:18 11° SW 05:45:16 15° SSW 05:48:46 10° SSE visible
24 Jan 6.8 04:45:01 18° S 04:45:01 18° S 04:48:45 10° SSE visible
25 Jan 7.4 03:47:45 12° SE 03:47:45 12° SE 03:48:26 10° SE visible
25 Jan 7.0 05:34:07 11° SW 05:36:05 13° SSW 05:38:47 10° S visible
26 Jan 7.0 04:36:51 15° S 04:36:51 15° S 04:39:15 10° SSE visible
28 Jan 7.3 04:28:45 11° S 04:28:45 11° S 04:29:20 10° S visible
